FW1286 Weather Reports


Display with metric or nautical units.
time (UTC)temp
F
wind
direction
speed
MPH
gust
MPH
rain 1hr
in
rain 24hr
in
rain mn
in
humidity
%
barometer
mb
20260509152945 81 338 3.0 8.0 0.00 0.00 0.00 79 1010.1
20260509151918 80 181 5.0 13.0 0.00 0.00 0.00 80 1009.7
20260509150847 80 194 7.0 13.0 0.00 0.00 0.00 81 1009.5
20260509145842 79 194 6.0 10.0 0.00 0.00 0.00 83 1009.8
20260509144815 78 185 6.0 10.0 0.00 0.00 0.00 84 1010.1
20260509143827 77 192 5.0 11.0 0.00 0.00 0.00 87 1009.7
20260509142845 77 136 6.0 11.0 0.00 0.00 0.00 89 1009.4
20260509141833 75 173 3.0 7.0 0.00 0.00 0.00 91 1009.5
20260509140841 75 189 4.0 8.0 0.00 0.00 0.00 93 1009.6
20260509134731 72 150 4.0 8.0 0.00 0.00 0.00 97 1009.7
20260509133744 71 168 2.0 6.0 0.00 0.00 0.00 98 1009.4
20260509132742 70 127 2.0 6.0 0.00 0.00 0.00 98 1009.2
20260509131749 70 167 2.0 6.0 0.00 0.00 0.00 97 1008.9
20260509130743 69 140 2.0 6.0 0.00 0.00 0.00 97 1008.9
20260509125721 69 121 3.0 6.0 0.00 0.00 0.00 97 1009.0
20260509124741 69 126 1.0 5.0 0.00 0.00 0.00 97 1009.3
20260509123744 69 177 1.0 4.0 0.00 0.00 0.00 97 1009.4
20260509122752 69 129 1.0 4.0 0.00 0.00 0.00 97 1009.2
20260509121801 68 155 0.0 3.0 0.00 0.00 0.00 97 1009.6
20260509120744 68 135 0.0 3.0 0.00 0.00 0.00 96 1009.5
20260509115745 68 136 0.0 6.0 0.00 0.00 0.00 96 1009.6
20260509114717 68 136 1.0 3.0 0.00 0.00 0.00 96 1009.6
20260509112514 69 267 1.0 0.0 0.00 0.00 0.00 96 1010.3
20260509111445 70 267 2.0 6.0 0.00 0.00 0.00 96 1010.9
20260509105308 70 302 1.0 4.0 0.00 0.00 0.00 96 1011.2
20260509104244 71 324 1.0 4.0 0.00 0.00 0.00 96 1011.1
20260509103257 71 324 1.0 0.0 0.00 0.00 0.00 96 1011.3
20260509101153 71 306 0.0 0.0 0.00 0.00 0.00 96 1010.8
20260509100143 71 306 0.0 2.0 0.00 0.00 0.00 96 1010.9
20260509095159 71 306 0.0 1.0 0.00 0.01 0.00 96 1010.6
20260509094210 71 306 0.0 1.0 0.00 0.02 0.00 96 1010.4
20260509093143 71 306 1.0 6.0 0.00 0.02 0.00 96 1010.1
20260509092115 71 300 2.0 6.0 0.00 0.02 0.00 96 1010.1
20260509091135 71 165 0.0 1.0 0.00 0.02 0.00 95 1009.7
20260509090116 71 165 0.0 0.0 0.00 0.02 0.00 95 1009.6
20260509085135 71 165 0.0 0.0 0.00 0.02 0.00 95 1009.7
20260509084120 72 165 0.0 0.0 0.00 0.02 0.00 95 1009.8
20260509083141 72 110 0.0 4.0 0.00 0.02 0.00 95 1009.8
20260509082128 71 145 0.0 3.0 0.00 0.02 0.00 95 1010.0
20260509081130 71 37 0.0 0.0 0.00 0.02 0.00 95 1010.1
20260509080145 71 37 0.0 0.0 0.00 0.02 0.00 94 1010.0
20260509075125 71 37 0.0 0.0 0.00 0.02 0.00 94 1010.2
20260509074121 72 37 0.0 0.0 0.00 0.02 0.00 95 1010.5
20260509073118 72 37 0.0 0.0 0.00 0.02 0.00 95 1010.6
20260509072046 72 37 0.0 0.0 0.00 0.02 0.00 94 1010.8
20260509065912 72 37 0.0 0.0 0.00 0.02 0.00 94 1010.3
20260509064936 72 37 0.0 0.0 0.00 0.02 0.00 94 1010.4
20260509063951 72 37 0.0 0.0 0.00 0.02 0.00 94 1010.4
20260509063002 72 37 0.0 0.0 0.00 0.02 0.00 94 1010.7
20260509062018 72 37 0.0 0.0 0.00 0.02 0.00 94 1010.9
20260509061010 72 37 0.0 0.0 0.00 0.02 0.00 94 1010.5
20260509054834 72 37 0.0 0.0 0.00 0.02 0.00 93 1010.7
20260509053828 72 37 0.0 0.0 0.00 0.02 0.00 93 1010.2
20260509052815 72 37 0.0 1.0 0.00 0.02 0.00 93 1009.6
20260509051806 72 37 0.0 0.0 0.00 0.02 0.00 93 1009.2
20260509050733 72 37 0.0 0.0 0.00 0.02 0.00 93 1009.1
20260509045701 72 37 0.0 0.0 0.00 0.02 0.02 93 1008.9
20260509044651 72 69 0.0 5.0 0.00 0.02 0.02 92 1008.9
20260509043638 72 116 0.0 5.0 0.00 0.02 0.02 92 1009.2
20260509042613 72 93 1.0 5.0 0.00 0.02 0.02 92 1009.4
20260509040441 72 108 1.0 4.0 0.00 0.02 0.02 93 1009.6
20260509035425 72 117 1.0 4.0 0.00 0.02 0.02 93 1009.6
20260509034424 72 123 0.0 4.0 0.00 0.02 0.02 93 1009.5
20260509033357 72 83 1.0 4.0 0.00 0.02 0.02 93 1009.5
20260509031233 72 76 2.0 6.0 0.00 0.02 0.02 93 1009.2
20260509030237 72 66 1.0 6.0 0.00 0.02 0.02 93 1009.1
20260509025239 72 97 2.0 6.0 0.00 0.02 0.02 93 1008.9
20260509023054 71 73 2.0 6.0 0.00 0.02 0.02 92 1008.9
20260509022103 71 84 1.0 6.0 0.00 0.02 0.02 92 1008.8
20260509021111 72 49 1.0 5.0 0.00 0.02 0.02 92 1008.6
20260509015027 72 29 2.0 6.0 0.00 0.02 0.02 91 1008.6
20260509012956 72 40 0.0 4.0 0.00 0.02 0.02 90 1008.4
20260509012020 73 45 1.0 4.0 0.00 0.02 0.02 90 1008.3
20260509010950 73 26 1.0 5.0 0.00 0.02 0.02 89 1008.3
20260509004815 74 53 3.0 8.0 0.00 0.02 0.02 88 1008.0
20260509002646 74 38 3.0 7.0 0.00 0.02 0.02 87 1008.4
20260509001636 74 36 2.0 7.0 0.00 0.02 0.02 87 1008.4
20260509000621 74 78 3.0 7.0 0.00 0.02 0.02 86 1008.4
20260508235609 75 39 2.0 6.0 0.00 0.02 0.02 86 1008.4
20260508234613 75 63 2.0 7.0 0.00 0.02 0.02 86 1008.4
20260508233637 75 80 2.0 7.0 0.00 0.02 0.02 85 1008.5
20260508232642 75 43 2.0 7.0 0.00 0.02 0.02 85 1008.5
20260508231608 75 70 3.0 7.0 0.00 0.02 0.02 85 1008.4
20260508230632 75 47 2.0 7.0 0.00 0.02 0.02 84 1008.5
20260508224512 75 47 3.0 8.0 0.00 0.02 0.02 83 1008.5
20260508223519 75 19 3.0 8.0 0.00 0.02 0.02 83 1008.5
20260508222449 76 21 4.0 9.0 0.00 0.02 0.02 81 1008.5
20260508215150 76 0 4.0 8.0 0.00 0.02 0.02 81 1008.9
20260508214149 76 68 3.0 7.0 0.00 0.02 0.02 81 1008.9
20260508213146 76 351 4.0 9.0 0.00 0.02 0.02 79 1009.0
20260508212211 76 61 5.0 9.0 0.00 0.02 0.02 81 1008.9
20260508211222 77 63 4.0 8.0 0.00 0.02 0.02 79 1009.2
20260508210208 76 63 4.0 8.0 0.00 0.02 0.02 81 1009.5
20260508205140 75 9 4.0 10.0 0.00 0.02 0.02 82 1009.6
20260508204143 75 327 4.0 10.0 0.00 0.02 0.02 81 1009.8
20260508203116 75 5 5.0 9.0 0.00 0.02 0.02 81 1009.9
20260508202130 75 343 3.0 9.0 0.00 0.02 0.02 81 1010.2
20260508201115 75 30 4.0 9.0 0.00 0.02 0.02 81 1010.3
20260508195110 75 24 4.0 8.0 0.00 0.02 0.02 80 1010.1
20260508194042 74 0 3.0 8.0 0.00 0.02 0.02 83 1010.5
20260508191925 73 52 2.0 7.0 0.00 0.02 0.02 83 1011.0
20260508190944 73 74 3.0 8.0 0.00 0.02 0.02 82 1011.1
20260508185910 73 355 4.0 8.0 0.00 0.02 0.02 82 1011.1
20260508184904 73 82 3.0 7.0 0.00 0.02 0.02 84 1011.3
20260508183855 71 61 2.0 7.0 0.00 0.02 0.02 84 1011.3
20260508182822 71 67 2.0 8.0 0.00 0.02 0.02 84 1011.6
20260508181823 71 0 3.0 8.0 0.00 0.02 0.02 84 1011.6
20260508175700 71 55 2.0 5.0 0.00 0.02 0.02 83 1011.9
20260508174725 71 5 1.0 5.0 0.00 0.02 0.02 83 1012.0
20260508173719 71 70 1.0 5.0 0.00 0.02 0.02 82 1012.0
20260508172737 71 92 0.0 1.0 0.00 0.02 0.02 83 1012.0
20260508171708 71 68 2.0 5.0 0.00 0.02 0.02 84 1012.0
20260508170655 69 110 1.0 6.0 0.00 0.02 0.02 83 1012.3
20260508165708 69 325 1.0 5.0 0.00 0.02 0.02 84 1012.4
20260508164721 68 135 1.0 6.0 0.00 0.02 0.02 85 1012.7
20260508161425 67 106 1.0 6.0 0.00 0.02 0.02 86 1013.1
20260508160401 67 68 1.0 5.0 0.00 0.02 0.02 86 1013.6
20260508155347 66 94 2.0 3.0 0.00 0.02 0.02 87 1013.3
20260508154341 66 107 3.0 6.0 0.00 0.02 0.02 86 1013.6